Location: Pedholt
(56.0260°N, 10.2097°E)
Time: 13:25:14
(UTC+00:00)

Tiros 1 - Pass Details

Date: 05 August 2021
Orbit: 630 x 663 km, 48.4° (Epoch: 23 September)

Event Time Altitude Azimuth Distance (km) Brightness Sun altitude
Rises 21:29:14 0° 269° (W) 2,974 11.0 -13.3°
Reaches altitude 10° 21:32:48 10° 242° (WSW) 2,051 9.7 -13.5°
Maximum altitude 21:34:53 13° 216° (SW) 1,858 9.2 -13.6°
Enters shadow 21:36:13 12° 198° (SSW) 1,932 9.2 -13.7°
Drops below altitude 10° 21:36:57 10° 189° (S) 2,037 - -13.8°
Sets 21:40:29 0° 161° (SSE) 2,933 - -14.0°
